| time (UTC) | temp F | wind direction | speed MPH | gust MPH | rain 1hr in | rain 24hr in | rain mn in | humidity % | barometer mb |
| 20260504220004 | 83 | 254 | 2.0 | 12.0 | 0.00 | 0.00 | 0.00 | 47 | 1002.4 |
| 20260504214504 | 83 | 231 | 0.0 | 8.0 | 0.00 | 0.00 | 0.00 | 47 | 1002.4 |
| 20260504213105 | 83 | 203 | 2.0 | 12.0 | 0.00 | 0.00 | 0.00 | 46 | 1002.5 |
| 20260504211559 | 82 | 269 | 2.0 | 14.0 | 0.00 | 0.00 | 0.00 | 48 | 1002.5 |
| 20260504204634 | 82 | 286 | 3.0 | 18.0 | 0.00 | 0.00 | 0.00 | 48 | 1002.6 |
| 20260504203052 | 81 | 205 | 4.0 | 11.0 | 0.00 | 0.00 | 0.00 | 50 | 1002.7 |
| 20260504201547 | 80 | 156 | 3.0 | 13.0 | 0.00 | 0.00 | 0.00 | 52 | 1003.2 |
| 20260504200046 | 79 | 248 | 2.0 | 11.0 | 0.00 | 0.00 | 0.00 | 55 | 1003.3 |
| 20260504194548 | 77 | 243 | 2.0 | 8.0 | 0.00 | 0.00 | 0.00 | 63 | 1003.8 |
| 20260504193035 | 74 | 209 | 0.0 | 3.0 | 0.00 | 0.00 | 0.00 | 65 | 1003.9 |
| 20260504191531 | 73 | 178 | 0.0 | 5.0 | 0.00 | 0.00 | 0.00 | 66 | 1004.2 |
| 20260504190033 | 70 | 196 | 0.0 | 4.0 | 0.00 | 0.00 | 0.00 | 72 | 1004.4 |
| 20260504184526 | 68 | 182 | 1.0 | 8.0 | 0.00 | 0.00 | 0.00 | 70 | 1003.7 |
| 20260504183027 | 68 | 163 | 2.0 | 10.0 | 0.00 | 0.00 | 0.00 | 69 | 1004.2 |
| 20260504181522 | 69 | 180 | 0.0 | 2.0 | 0.00 | 0.00 | 0.00 | 65 | 1005.0 |
| 20260504180021 | 69 | 183 | 0.0 | 6.0 | 0.00 | 0.00 | 0.00 | 64 | 1005.0 |
| 20260504174520 | 70 | 198 | 0.0 | 7.0 | 0.00 | 0.00 | 0.00 | 63 | 1005.0 |
| 20260504173018 | 70 | 146 | 0.0 | 8.0 | 0.00 | 0.00 | 0.00 | 63 | 1005.2 |
| 20260504171533 | 70 | 215 | 0.0 | 4.0 | 0.00 | 0.00 | 0.00 | 64 | 1005.8 |
| 20260504150106 | 65 | 192 | 0.0 | 4.0 | 0.00 | 0.01 | 0.00 | 70 | 1006.9 |
| 20260504081536 | 59 | 331 | 0.0 | 0.0 | 0.00 | 0.01 | 0.00 | 80 | 1008.5 |
| 20260504044602 | 66 | 331 | 0.0 | 0.0 | 0.00 | 0.01 | 0.01 | 65 | 1008.5 |
| 20260504043053 | 66 | 331 | 0.0 | 0.0 | 0.00 | 0.01 | 0.01 | 64 | 1008.6 |
| 20260504041552 | 67 | 331 | 0.0 | 4.0 | 0.00 | 0.01 | 0.01 | 61 | 1009.1 |
| 20260504040051 | 68 | 309 | 3.0 | 7.0 | 0.00 | 0.01 | 0.01 | 63 | 1009.3 |
| 20260504034607 | 69 | 288 | 0.0 | 8.0 | 0.00 | 0.01 | 0.01 | 58 | 1009.3 |
| 20260504033050 | 69 | 198 | 0.0 | 1.0 | 0.00 | 0.01 | 0.01 | 58 | 1008.8 |
| 20260504031550 | 68 | 200 | 0.0 | 1.0 | 0.00 | 0.01 | 0.01 | 59 | 1009.5 |
| 20260504030048 | 68 | 257 | 0.0 | 0.0 | 0.00 | 0.01 | 0.01 | 63 | 1009.7 |
| 20260504024547 | 69 | 259 | 0.0 | 0.0 | 0.00 | 0.01 | 0.01 | 62 | 1009.4 |
| 20260504023047 | 70 | 259 | 0.0 | 0.0 | 0.00 | 0.01 | 0.01 | 60 | 1009.4 |
| 20260504021547 | 71 | 259 | 0.0 | 0.0 | 0.00 | 0.01 | 0.01 | 56 | 1009.4 |
| 20260504020046 | 72 | 259 | 0.0 | 0.0 | 0.00 | 0.01 | 0.01 | 54 | 1009.3 |
| 20260504014600 | 73 | 259 | 0.0 | 0.0 | 0.00 | 0.01 | 0.01 | 53 | 1009.3 |
| 20260504013051 | 73 | 259 | 0.0 | 1.0 | 0.00 | 0.01 | 0.01 | 51 | 1009.3 |
| 20260504011545 | 73 | 259 | 1.0 | 4.0 | 0.00 | 0.01 | 0.01 | 48 | 1009.1 |
| 20260504010043 | 74 | 296 | 2.0 | 5.0 | 0.00 | 0.01 | 0.01 | 56 | 1009.1 |
| 20260504004543 | 75 | 236 | 0.0 | 1.0 | 0.00 | 0.01 | 0.01 | 48 | 1008.8 |
| 20260504003050 | 76 | 236 | 0.0 | 1.0 | 0.00 | 0.01 | 0.01 | 45 | 1008.9 |
| 20260504001543 | 77 | 236 | 0.0 | 1.0 | 0.00 | 0.01 | 0.01 | 43 | 1008.9 |
| 20260504000041 | 77 | 236 | 0.0 | 10.0 | 0.00 | 0.01 | 0.01 | 41 | 1008.9 |
| 20260503234546 | 78 | 212 | 0.0 | 8.0 | 0.00 | 0.01 | 0.01 | 41 | 1009.0 |
| 20260503233037 | 78 | 200 | 1.0 | 12.0 | 0.00 | 0.01 | 0.01 | 39 | 1009.0 |
| 20260503231536 | 79 | 202 | 2.0 | 11.0 | 0.00 | 0.01 | 0.01 | 39 | 1009.1 |
| 20260503230040 | 80 | 256 | 0.0 | 10.0 | 0.00 | 0.01 | 0.01 | 38 | 1009.2 |
| 20260503224533 | 80 | 252 | 3.0 | 12.0 | 0.00 | 0.01 | 0.01 | 37 | 1009.4 |
| 20260503223032 | 80 | 223 | 1.0 | 15.0 | 0.00 | 0.01 | 0.01 | 37 | 1009.6 |
| 20260503221530 | 80 | 316 | 3.0 | 14.0 | 0.00 | 0.01 | 0.01 | 36 | 1009.7 |